Home   Weather   USA   Lexington   Past weeks
Flag for USA

Past Weather in Lexington, Virginia, USA — Yesterday and Last 2 Weeks

Currently: 33 °F. Sunny. (Weather station: Hot Springs / Ingalls, USA). See more current weather

Past Weather in Lexington — Graph

°F

Lexington Temperature Yesterday

Maximum temperature yesterday: 38 °F (at 12:55 pm)
Minimum temperature yesterday: 26 °F (at 6:35 am)
Average temperature yesterday: 32 °F

High & Low Weather Summary for the Past Weeks

 TemperatureHumidityPressure
High56 °F (Nov 27, 2:55 pm)100% (Nov 25, 5:15 am)30.40 "Hg (Nov 25, 5:15 am)
Low20 °F (Nov 21, 1:55 am)6% (Dec 2, 1:15 am)29.53 "Hg (Nov 27, 2:55 pm)
Average40 °F50%30.15 "Hg
* Reported Nov 20 4:35 pm — Dec 5 4:15 pm, Lexington. Weather by CustomWeather, © 2022

Note: Actual official high and low records may vary slightly from our data, if they occured in-between our weather recording intervals... More about our weather records

Lexington Weather History for the Previous 24 Hours

Scroll right to see more
 ConditionsComfort  
Time TempWeatherWind HumidityBarometerVisibility
4:15 pm
Mon, Dec 5
34 °FSunny.10 mph63%30.07 "Hg10 mi
3:35 pm35 °FSunny.12 mph60%30.07 "Hg10 mi
3:15 pm36 °FSunny.14 mph55%30.07 "Hg10 mi
2:35 pm37 °FSunny.10 mph56%30.08 "Hg10 mi
2:15 pm38 °FSunny.8 mph55%30.09 "Hg10 mi
1:55 pm39 °FSunny.9 mph54%30.10 "Hg10 mi
1:35 pm39 °FSunny.12 mph54%30.10 "Hg10 mi
12:55 pm38 °FScattered clouds.9 mph49%30.11 "Hg10 mi
12:35 pm36 °FSunny.9 mph45%30.11 "Hg10 mi
12:15 pm37 °FSunny.9 mph47%30.10 "Hg10 mi
11:35 am38 °FSunny.13 mph41%30.11 "Hg10 mi
11:15 am38 °FSunny.13 mph36%30.12 "Hg10 mi
10:55 am38 °FSunny.13 mph36%30.12 "Hg10 mi
10:35 am37 °FSunny.10 mph36%30.12 "Hg10 mi
10:15 am37 °FSunny.13 mph32%30.13 "Hg10 mi
9:35 am40 °FSunny.14 mph17%30.12 "Hg10 mi
9:15 am39 °FSunny.12 mph21%30.12 "Hg10 mi
8:55 am39 °FSunny.10 mph24%30.12 "Hg10 mi
8:35 am39 °FSunny.10 mph23%30.12 "Hg10 mi
8:15 am39 °FSunny.10 mph28%30.11 "Hg10 mi
7:55 am38 °FSunny.9 mph27%30.11 "Hg10 mi
6:55 am37 °FClear.8 mph13%30.10 "Hg10 mi
6:35 am37 °FClear.10 mph10%30.09 "Hg10 mi
6:15 am36 °FClear.9 mph11%30.09 "Hg10 mi
5:55 am36 °FClear.9 mph12%30.09 "Hg10 mi
5:35 am36 °FClear.8 mph12%30.08 "Hg10 mi
5:15 am36 °FClear.7 mph10%30.08 "Hg10 mi
4:55 am36 °FClear.8 mph10%30.08 "Hg10 mi
4:35 am35 °FClear.7 mph12%30.08 "Hg10 mi
4:15 am36 °FClear.8 mph11%30.08 "Hg10 mi
3:55 am34 °FClear.7 mph14%30.08 "Hg10 mi
3:35 am35 °FClear.7 mph13%30.08 "Hg10 mi
3:15 am33 °FClear.7 mph15%30.09 "Hg10 mi
2:35 am35 °FClear.5 mph10%30.10 "Hg10 mi
2:15 am36 °FClear.3 mph11%30.09 "Hg10 mi
1:35 am35 °FClear.6 mphN/A30.09 "Hg10 mi
12:55 am34 °FClear.5 mph18%30.09 "Hg10 mi
12:35 am33 °FClear.5 mph26%30.09 "Hg10 mi
12:15 am33 °FClear.5 mph26%30.10 "Hg10 mi
11:55 pm
Sun, Dec 4
34 °FClear.5 mph23%30.10 "Hg10 mi
11:35 pm32 °FClear.3 mph22%30.10 "Hg10 mi
11:15 pm33 °FClear.5 mph26%30.10 "Hg10 mi
10:55 pm34 °FClear.5 mph23%30.10 "Hg10 mi
10:35 pm32 °FClear.6 mph33%30.10 "Hg10 mi
10:15 pm32 °FClear.6 mph41%30.10 "Hg10 mi
9:55 pm31 °FClear.7 mph42%30.11 "Hg10 mi
9:35 pm31 °FClear.8 mph45%30.11 "Hg10 mi
9:15 pm33 °FClear.8 mph36%30.11 "Hg10 mi
8:55 pm32 °FClear.6 mph45%30.11 "Hg10 mi
8:35 pm31 °FClear.7 mph56%30.11 "Hg10 mi
8:15 pm32 °FClear.9 mph57%30.12 "Hg10 mi
7:55 pm32 °FClear.9 mph56%30.12 "Hg10 mi
6:35 pm33 °FClear.12 mph52%30.11 "Hg10 mi
6:15 pm33 °FClear.10 mph52%30.11 "Hg10 mi
5:55 pm32 °FClear.10 mph54%30.11 "Hg10 mi
5:35 pm33 °FClear.8 mph54%30.10 "Hg10 mi
5:15 pm33 °FClear.10 mph53%30.10 "Hg10 mi
Weather by CustomWeather, © 2022

See weather overview